Regional Weather Roundup
Issued by NWS

Home | Current Version | Previous Version | Graphics & Text | Print | Product List | Glossary Off
Versions: 1 2 3 4 5 6 7 8 9 10 11 12 13 14 15 16 17 18 19 20 21 22 23 24 25 26 27 28 29 30 31 32 33 34 35 36 37 38 39 40 41 42 43 44 45 46 47 48 49 50

000
ASUS43 KDTX 242110
RWRMI
MICHIGAN HOURLY REGIONAL WEATHER ROUNDUP
NATIONAL WEATHER SERVICE DETROIT/PONTIAC MI
500 PM EDT SUN MAY 24 2015

NOTE: "FAIR" INDICATES FEW OR NO CLOUDS BELOW 12,000 FEET WITH NO
SIGNIFICANT WEATHER AND/OR OBSTRUCTION TO VISIBILITY.

MIZ047>049-052>055-059>063-066>070-074>076-081>083-242200-
SOUTHEAST LOWER MICHIGAN

CITY           SKY/WX    TMP DP  RH WIND       PRES   REMARKS
ADRIAN         CLOUDY    79  54  41 S5        30.15F
ALMA           LGT RAIN  68  56  65 CALM      30.18F
ANN ARBOR      CLOUDY    76  55  48 CALM      30.16F
BAD AXE        CLOUDY    73  41  30 SW16      30.17R
CARO           LGT RAIN  71  55  56 SW7       30.17S
DETROIT CITY   CLOUDY    76  49  38 S7        30.17F
DETROIT        CLOUDY    76  51  41 E6        30.17F
FLINT          LGT RAIN  73  52  47 SW9       30.19R
GROSSE ILE     CLOUDY    72  52  49 E3        30.15F
HILLSDALE      CLOUDY    79  54  42 S5        30.15F
HOWELL         CLOUDY    74  50  41 S3        30.17F

CITY           SKY/WX    TMP DP  RH WIND       PRES   REMARKS
JACKSON        CLOUDY    74  55  51 SE3       30.15F
LAMBERTVILLE   CLOUDY    81  52  36 S3        30.15F
LANSING        CLOUDY    74  57  55 E5        30.16F
LAPEER         CLOUDY    75  46  36 SW3       30.18S
MASON          CLOUDY    71  58  63 CALM      30.16F
MONROE         CLOUDY    73  54  49 E7        30.15F
MT. CLEMENS    CLOUDY    74  56  52 S8        30.15F
PONTIAC        CLOUDY    75  48  38 SW7       30.18S
PORT HOPE        N/A     68  54  60 CALM      30.14S
PORT HURON     CLOUDY    73  50  43 S3        30.17F
TRI CITIES     LGT RAIN  72  54  53 SW7       30.18S
MIDLAND        DRIZZLE   70  52  51 W3        30.17S
TROY           CLOUDY    78  45  31 SW8       30.18F
SAGINAW HB     LGT RAIN  73  52  46 W5        30.17S
$$
MIZ043>046-050>051-056>058-064>065-071>073-077>080-242200-
SOUTHWEST LOWER MICHIGAN

CITY           SKY/WX    TMP DP  RH WIND       PRES   REMARKS
BATTLE CREEK   CLOUDY    76  56  49 SE8       30.14F
BENTON HARBOR  CLOUDY    74  57  55 E9        30.05F
BIG RAPIDS     RAIN      64  53  67 SE5       30.15F
COLDWATER      CLOUDY    76  56  49 SE7       30.13F
FREMONT        LGT RAIN  64  59  84 E8        30.11F
HOLLAND        LGT RAIN  70  55  59 E8        30.09F
GRAND RAPIDS   LGT RAIN  73  53  49 E8        30.13F
IONIA          FAIR      73  51  46 E6        30.13F
KALAMAZOO      CLOUDY    76  56  49 VRB3      30.11F
LUDINGTON      LGT RAIN  62  57  82 SE6       30.12F
MARSHALL       CLOUDY    75  56  50 SE7       30.14F
MOUNT PLEASANT DRIZZLE   66  57  71 CALM      30.17F
MUSKEGON       LGT RAIN  65  56  72 E12       30.09F
SOUTH HAVEN    CLOUDY    73  53  48 E12       30.07F
$$
MIZ016>042-242200-
NORTHERN LOWER MICHIGAN

CITY           SKY/WX    TMP DP  RH WIND       PRES   REMARKS
ALPENA         CLOUDY    75  50  41 E3        30.08F
BEAVER ISLAND  CLOUDY    62  46  55 SW15G25   30.11S
BELLAIRE       CLOUDY    71  47  43 SW6       30.11S
CADILLAC       LGT RAIN  63  53  69 S8        30.16S
CHARLEVOIX     CLOUDY    64  49  58 SW10      30.14S
FRANKFORT      CLOUDY    66  47  49 SW8       30.12F
GAYLORD        CLOUDY    75  46  35 W13       30.11F
GRAYLING       CLOUDY    72  46  40 S10G17    30.13F
HARBOR SPRINGS CLOUDY    65  49  56 W14G23    30.12F
HOUGHTON LAKE  CLOUDY    71  44  37 SW12G23   30.15F
MANISTEE       CLOUDY    63  54  72 E5        30.13F
OSCODA         CLOUDY    76  48  36 S12       30.11F
PELLSTON       LGT RAIN  69  48  47 W15G25    30.11R
ROGERS CITY    CLOUDY    68  49  50 NE3       30.09F
TRAVERSE CITY  CLOUDY    72  50  45 SW6       30.09F
$$
MIZ007>008-015-242200-
EASTERN UPPER MICHIGAN

CITY           SKY/WX    TMP DP  RH WIND       PRES   REMARKS
KINROSS        CLOUDY    75  41  29 SW8       30.07F
MACKINAC ISLAN CLOUDY    64  44  46 W14G22    30.10R
NEWBERRY       CLOUDY    68  45  44 S10G21    30.08S
S. S. MARIE    CLOUDY    76  44  32 SW8       30.05F
MUNISING         N/A     62  41  46 N5        30.02F
$$
MIZ004>006-011>014-085-242200-
CENTRAL UPPER MICHIGAN

CITY           SKY/WX    TMP DP  RH WIND       PRES   REMARKS
MANISTIQUE     PTSUNNY   55  43  65 S13       30.08S
ESCANABA       CLOUDY    63  48  59 S12G17    30.05F
MENOMINEE      CLOUDY    64  52  63 SW16      30.08S
SAWYER-GWINN   CLOUDY    75  45  33 S8        30.03F
$$
MIZ001>003-009>011-084-242200-
WESTERN UPPER MICHIGAN

CITY           SKY/WX    TMP DP  RH WIND       PRES   REMARKS
IRON MOUNTAIN  CLOUDY    73  49  42 S16       30.03S
HOUGHTON       PTSUNNY   76  45  33 NW8       30.00F
COPPER HARBOR    N/A     58  42  55 CALM      30.01F
IRONWOOD       CLOUDY    72  46  40 N7        29.97F
$$

ABBREVIATIONS USED IN REMARKS
   TC - TEMPERATURE IN CELSIUS
  WCI - WIND CHILL INDEX
   HX - HEAT INDEX
  VSB - VISIBILITY



USA.gov is the U.S. government's official web portal to all federal, state and local government web resources and services.